DELTA 1 DEB, 7126

Orbit data source: Space-Track

DELTA 1 DEB, 7126 is space debris in SSO originally from a launch on Tue, 06 Nov 1973 UTC launched from the Air Force Western Test Range (AFWTR). Debris objects in space refer to the collection of defunct objects orbiting the Earth. Examples of debris include non-operational satellites, rocket bodies, and fragments generated from explosions, collisions, or faulty payload assembly.

Loading next visibility...
Identifier
7126, 1973-086CQ
Orbit
SSO
Country
Flag of USUS
Related business
Manufacturer
Unknown
Mission
Spacecraft
Bus & Motor
Unknown
Mass
Unknown
Launch date (UTC)
1973-11-06 (53 years ago)
Launch vehicle
Unknown
Launch site
Air Force Western Test Range (AFWTR)
Object type
Payload
Rocket body
Debris
Shape & HBR
Unknown shape, 0.1 m
Radar Cross Section
Medium (>0.1 m² and <1 m²)

Expand to show TLE details & history
Last TLE update: 22 hours ago

TLE from 22 hours ago
0 DELTA 1 DEB
1 07126U 73086CQ  26263.86041968  .00000130  00000-0  11109-2 0  9999
2 07126 102.0026 238.5590 0283986  90.4585  21.8868 12.41140016386255
Epoch: 2026-09-20T20:39Z
TLE epoch observation values (Epoch: 2026-09-20T20:39:00.260Z)
Latitude
63.76922°
Longitude
134.48336°
Altitude
1,305.798 km
Speed
7.304 km/s
True Right ascension
05h 35m 55s
True Declination
63° 38' 33"
Sunlit
Object was in daylight at epoch
Visualization orbit readout
Latitude
Unknown
Longitude
Unknown
Altitude
Unknown
Speed
Unknown
Apparent Right ascension
Unknown
Apparent Declination
Unknown
Sunlit
N/A
Visualization observer readout
Local Sidereal Time
11:59:25
Azimuth
Unknown
Elevation
Unknown
Doppler factor
Unknown
Orbital elements
Apogee altitude
1,723.054 km
Perigee altitude
1,275.635 km
Semi-major axis
7,877.482 km
Eccentricity
0.0284
Inclination
102.0026°
RAAN
238.559°
Arg. of periapsis
90.4585°
True anomaly
23.14106°
Mean anomaly
21.8868°
Eccentric anomaly
22.50973°
Mean motion
3.10429 °/min
Orbital period
115.97 mins
BSTAR
0.0011109
Loading maneuver chart data...
Computing Atmospheric mass density...
Loading historical data...
Loading historical data...
Loading historical data...
Loading historical data...
Loading historical data...
Loading historical data...
Loading historical data...

Documentation

Showing up to 5 results
|